Meteo Giornale » Osservazioni meteo Italia » Bergamo-Orio Al Serio

ore: 06:50 - Osservazioni Meteo Bergamo-Orio Al Serio
Lat. 45° 40' N Lon. 9° 42' E Alt. 238 metri s.l.m.

molto_nuvoloso

21 °C

Molto Nuvoloso

Temp. 24 Ore

21 °C

29 °C

Nord

9.3 Km/h

Dew point 17 °C

Umidità 77 %

Visibilità  10 Km

Il sole sorge alle ore 06:43

Il sole tramonta alle ore 19:58

Data e Ora Cielo e Fenomeni T °C DP °C Um. % Pres. hPa Vis. km Vento km/h
Oggi h: 06:50 molto_nuvoloso Molto Nuvoloso 21 17 77 1019 10 N 9.3
Oggi h: 06:20 poco_nuvoloso Poco Nuvoloso 21 17 77 1019 10 N 5.5
Oggi h: 05:50 nuvoloso Nuvoloso 21 17 77 1019 10 N 7.4
Oggi h: 05:20 sereno Sereno 21 17 77 1019 10 N 9.3
Oggi h: 04:50 sereno Sereno 21 17 77 1019 10 N 7.4
Oggi h: 04:20 sereno Sereno 22 17 73 1019 10 N 7.4
Oggi h: 03:50 sereno Sereno 22 17 73 1019 10 N 5.5
Oggi h: 03:20 sereno Sereno 22 17 73 1019 10 N 7.4
Oggi h: 02:50 sereno Sereno 22 17 73 1019 10 N 5.5
Oggi h: 02:20 sereno Sereno 22 17 73 1019 10 N 7.4
Oggi h: 01:50 sereno Sereno 22 17 73 1019 10 N 5.5
Oggi h: 01:20 nuvoloso Nuvoloso 23 17 68 1019 10 N/NE 9.3
Oggi h: 00:50 sereno Sereno 23 17 68 1019 10 N 9.3
Oggi h: 00:20 sereno Sereno 23 17 68 1019 10 N 9.3
Ieri h: 23:50 sereno Sereno 23 17 68 1019 10 N 7.4
Ieri h: 23:20 sereno Sereno 23 17 68 1019 10 N 9.3
Ieri h: 22:50 poco_nuvoloso Poco Nuvoloso 24 18 69 1019 10 N 7.4
Ieri h: 22:20 poco_nuvoloso Poco Nuvoloso 25 18 65 1018 10 N 5.5
Ieri h: 21:50 poco_nuvoloso Poco Nuvoloso 25 18 65 1018 10 N 5.5
Ieri h: 21:20 poco_nuvoloso Poco Nuvoloso 25 18 65 1018 10 N/NE 9.3
Ieri h: 20:50 poco_nuvoloso Poco Nuvoloso 26 18 61 1018 10 N/NE 7.4
Ieri h: 20:20 poco_nuvoloso Poco Nuvoloso 26 17 57 1017 10 N 5.5
Ieri h: 19:50 poco_nuvoloso Poco Nuvoloso 28 17 51 1017 10 N 5.5
Ieri h: 19:20 poco_nuvoloso Poco Nuvoloso 28 16 48 1017 10 N 5.5
Ieri h: 18:50 poco_nuvoloso Poco Nuvoloso 28 17 51 1017 10 SE 7.4
Ieri h: 18:20 poco_nuvoloso Poco Nuvoloso 29 17 48 1017 10 S/SE 7.4
Ieri h: 17:50 poco_nuvoloso Poco Nuvoloso 29 17 48 1017 10 N 5.5
Ieri h: 17:20 poco_nuvoloso Poco Nuvoloso 29 16 45 1017 10 S 7.4
Ieri h: 16:50 poco_nuvoloso Poco Nuvoloso 29 15 42 1017 10 E 9.3
Ieri h: 16:20 poco_nuvoloso Poco Nuvoloso 29 16 45 1018 10 N 7.4
Ieri h: 15:50 poco_nuvoloso Poco Nuvoloso 29 15 42 1018 10 N 7.4
Ieri h: 15:20 nuvoloso Nuvoloso 29 16 45 1018 10 S/SE 11.1
Ieri h: 14:50 poco_nuvoloso Poco Nuvoloso 29 15 42 1018 10 N 7.4
Ieri h: 14:20 sereno Sereno 28 16 48 1018 10 E 7.4
Ieri h: 13:50 nuvoloso Nuvoloso 28 16 48 1018 10 N 5.5
Ieri h: 13:20 poco_nuvoloso Poco Nuvoloso 28 17 51 1019 10 N 9.3
Ieri h: 12:50 nuvoloso Nuvoloso 28 16 48 1019 10 N 5.5
Ieri h: 12:20 poco_nuvoloso Poco Nuvoloso 28 16 48 1019 10 N 7.4
Ieri h: 11:50 sereno Sereno 27 16 50 1019 10 S 9.3
Ieri h: 11:20 poco_nuvoloso Poco Nuvoloso 27 17 54 1019 10 SO 9.3
Ieri h: 10:50 nuvoloso Nuvoloso 26 16 54 1019 10 N 5.5
Ieri h: 10:20 nuvoloso Nuvoloso 26 16 54 1019 10 NO 9.3
Ieri h: 09:50 molto_nuvoloso Molto Nuvoloso 24 17 64 1018 10 N 5.5
Ieri h: 09:20 nuvoloso Nuvoloso 23 16 64 1018 10 N 7.4
Ieri h: 08:50 molto_nuvoloso Molto Nuvoloso 23 15 60 1018 10 N/NO 7.4
Ieri h: 08:20 molto_nuvoloso Molto Nuvoloso 23 16 64 1018 10 N/NO 7.4
Ieri h: 07:50 molto_nuvoloso Molto Nuvoloso 22 17 73 1018 10 N 3.7